Location: Oshawa
(43.9000°N, 78.8670°W)
Time: 04:43:07
(UTC-04:00)

SPOT 5 - Visible Passes

Search period start: 27 April 2018 00:00
Search period end: 07 May 2018 00:00
Orbit: 622 x 816 km, 98.4° (Epoch: 27 April)

Date Brightness Start Highest point End Pass type
(mag) Time Alt. Az. Time Alt. Az. Time Alt. Az.
27 Apr 2.8 22:21:43 47° ESE 22:22:35 55° ENE 22:26:51 10° N visible
28 Apr 5.0 00:00:56 15° W 00:00:58 15° W 00:03:27 10° WNW visible
28 Apr 4.3 21:30:57 15° E 21:32:46 18° ENE 21:35:46 10° NNE visible
28 Apr 3.3 23:10:11 45° WSW 23:10:33 46° W 23:14:46 10° NNW visible
29 Apr 2.9 22:19:26 42° ESE 22:20:26 52° ENE 22:24:40 10° N visible
29 Apr 4.9 23:58:39 15° W 23:58:49 15° W 00:01:24 10° NW visible
30 Apr 4.4 21:28:40 13° E 21:30:39 17° ENE 21:33:31 10° NNE visible
30 Apr 3.2 23:07:54 46° WSW 23:08:23 48° W 23:12:37 10° NNW visible
01 May 2.9 22:17:08 38° ESE 22:18:18 49° ENE 22:22:29 10° N visible
01 May 4.9 23:56:22 16° W 23:56:40 16° W 23:59:21 10° NW visible
02 May 4.4 21:26:22 12° E 21:28:32 17° ENE 21:31:15 10° NNE visible
02 May 3.1 23:05:36 47° SW 23:06:15 51° W 23:10:29 10° NNW visible
03 May 3.0 22:14:50 35° ESE 22:16:09 46° ENE 22:20:19 10° N visible
03 May 4.8 23:54:04 16° W 23:54:30 17° W 23:57:18 10° NW visible
04 May 4.5 21:24:04 11° E 21:26:25 16° ENE 21:29:00 10° NNE visible
04 May 3.0 23:03:18 47° SW 23:04:05 54° W 23:08:20 10° NNW visible
05 May 3.1 22:12:32 32° ESE 22:14:01 44° ENE 22:18:07 10° N visible
05 May 4.7 23:51:46 17° WSW 23:52:20 17° W 23:55:14 10° NW visible
06 May 4.6 21:21:50 10° E 21:24:17 15° ENE 21:26:44 10° NNE visible
06 May 3.0 23:01:00 46° SSW 23:01:56 57° W 23:06:12 10° NNW visible
